Location: Grand Mazuras
(45.9128°N, 1.7636°E)
Time: 03:55:15
(UTC+00:00)

ATLAS 3B R/B - Pass Details

Date: 18 April 2021
Orbit: 1006 x 1189 km, 63.8° (Epoch: 21 April)

Event Time Altitude Azimuth Distance (km) Brightness Sun altitude
Rises 20:39:20 0° 320° (NW) 3,890 7.2 -18.4°
Reaches altitude 10° 20:41:58 10° 317° (NW) 2,957 6.3 -18.8°
Maximum altitude 20:48:54 63° 239° (WSW) 1,257 3.1 -19.7°
Enters shadow 20:53:12 26° 167° (SSE) 2,101 3.8 -20.3°
